SHT4J EGLL-EGAC

Flight info

Callsign SHT4J
Flight time 1h 20m
Altitude 34000
Route UMLAT T418 WELIN T420 TNT UL28 RODOL UM65 TENSO L603 BELOX DCT REMSI DCT NINEB M148 MAGEE
Aircraft A320/M-SDE3FGHIJ1RWXY/SB1

Departure

Time 2026-05-04 19:01
Airport London Heathrow Airport (EGLL)

Arrival

Time 2026-05-04 20:21
Airport George Best Belfast City Airport (EGAC)
Time Latitude Longitude Altitude Speed Heading
2026-05-04 17:35 51.47360 -0.48590 87 ft 0 kts 270°
2026-05-04 18:44 51.47360 -0.48549 87 ft 4 kts 270°
2026-05-04 18:44 51.47360 -0.48515 87 ft 4 kts 257°
2026-05-04 18:45 51.47372 -0.48481 89 ft 4 kts 200°
2026-05-04 18:45 51.47389 -0.48477 88 ft 0 kts 180°
2026-05-04 18:50 51.47386 -0.48477 88 ft 2 kts 180°
2026-05-04 18:50 51.47353 -0.48477 88 ft 6 kts 180°
2026-05-04 18:50 51.47300 -0.48477 87 ft 9 kts 180°
2026-05-04 18:50 51.47231 -0.48476 87 ft 11 kts 179°
2026-05-04 18:51 51.47146 -0.48475 87 ft 13 kts 180°
2026-05-04 18:51 51.47044 -0.48474 87 ft 14 kts 179°
2026-05-04 18:51 51.46960 -0.48473 87 ft 13 kts 179°
2026-05-04 18:51 51.46874 -0.48471 89 ft 12 kts 180°
2026-05-04 18:52 51.46842 -0.48471 88 ft 2 kts 180°
2026-05-04 18:52 51.46824 -0.48471 88 ft 0 kts 180°
2026-05-04 18:53 51.46820 -0.48471 87 ft 3 kts 180°
2026-05-04 18:54 51.46785 -0.48471 87 ft 8 kts 180°
2026-05-04 18:54 51.46724 -0.48471 87 ft 10 kts 180°
2026-05-04 18:54 51.46646 -0.48469 87 ft 12 kts 179°
2026-05-04 18:54 51.46598 -0.48469 88 ft 2 kts 180°
2026-05-04 18:55 51.46585 -0.48469 88 ft 0 kts 180°
2026-05-04 18:59 51.46582 -0.48469 88 ft 3 kts 180°
2026-05-04 18:59 51.46500 -0.48457 91 ft 18 kts 152°
2026-05-04 19:00 51.46479 -0.48241 89 ft 33 kts 90°
2026-05-04 19:00 51.46482 -0.47453 86 ft 104 kts 89°
2026-05-04 19:00 51.46488 -0.45979 95 ft 157 kts 89°
2026-05-04 19:00 51.46500 -0.44172 649 ft 163 kts 88°
2026-05-04 19:01 51.46530 -0.42346 1422 ft 165 kts 84°
2026-05-04 19:01 51.46915 -0.40562 1763 ft 183 kts 52°
2026-05-04 19:01 51.47798 -0.38911 2046 ft 208 kts 49°
2026-05-04 19:01 51.48793 -0.37034 2469 ft 233 kts 50°
2026-05-04 19:02 51.49877 -0.34962 2642 ft 246 kts 50°
2026-05-04 19:02 51.50974 -0.32851 2794 ft 248 kts 50°
2026-05-04 19:02 51.52010 -0.30755 2960 ft 228 kts 58°
2026-05-04 19:02 51.52619 -0.28474 3168 ft 222 kts 70°
2026-05-04 19:03 51.53114 -0.26111 3371 ft 223 kts 70°
2026-05-04 19:03 51.53768 -0.23862 3572 ft 224 kts 50°
2026-05-04 19:03 51.55005 -0.22383 3778 ft 225 kts 19°
2026-05-04 19:03 51.56645 -0.22186 3995 ft 252 kts 347°
2026-05-04 19:04 51.58342 -0.23051 4197 ft 259 kts 344°
2026-05-04 19:04 51.60109 -0.23689 4430 ft 261 kts 349°
2026-05-04 19:04 51.61857 -0.24343 4660 ft 261 kts 340°
2026-05-04 19:04 51.63504 -0.25598 5023 ft 263 kts 331°
2026-05-04 19:05 51.65109 -0.27036 5376 ft 265 kts 329°
2026-05-04 19:05 51.66724 -0.28556 5736 ft 266 kts 328°
2026-05-04 19:05 51.68298 -0.30068 6095 ft 267 kts 328°
2026-05-04 19:05 51.69901 -0.31615 6443 ft 270 kts 327°
2026-05-04 19:06 51.71513 -0.33174 6604 ft 270 kts 327°
2026-05-04 19:06 51.73125 -0.34735 6780 ft 270 kts 327°
2026-05-04 19:06 51.74732 -0.36292 6941 ft 270 kts 327°
2026-05-04 19:06 51.76349 -0.37858 7121 ft 271 kts 327°
2026-05-04 19:07 51.77974 -0.39429 7265 ft 272 kts 327°
2026-05-04 19:07 51.79602 -0.41000 7423 ft 273 kts 327°
2026-05-04 19:07 51.81231 -0.42579 7467 ft 273 kts 327°
2026-05-04 19:07 51.82857 -0.44161 7516 ft 273 kts 327°
2026-05-04 19:08 51.84487 -0.45745 7569 ft 273 kts 327°
2026-05-04 19:08 51.86115 -0.47327 7617 ft 274 kts 327°
2026-05-04 19:08 51.87751 -0.48912 7664 ft 274 kts 327°
2026-05-04 19:08 51.89385 -0.50501 7721 ft 274 kts 327°
2026-05-04 19:09 51.91021 -0.52093 7774 ft 275 kts 327°
2026-05-04 19:09 51.92657 -0.53688 7819 ft 275 kts 327°
2026-05-04 19:09 51.94293 -0.55282 7961 ft 275 kts 327°
2026-05-04 19:09 51.95937 -0.56886 8026 ft 276 kts 327°
2026-05-04 19:10 51.97582 -0.58494 8033 ft 276 kts 327°
2026-05-04 19:10 51.99239 -0.60117 8340 ft 280 kts 327°
2026-05-04 19:10 52.00888 -0.61733 9271 ft 281 kts 327°
2026-05-04 19:10 52.02574 -0.63387 10115 ft 286 kts 327°
2026-05-04 19:11 52.04346 -0.65129 10412 ft 309 kts 327°
2026-05-04 19:11 52.06250 -0.67004 10686 ft 330 kts 327°
2026-05-04 19:11 52.08238 -0.68957 11288 ft 337 kts 327°
2026-05-04 19:11 52.10257 -0.70938 11999 ft 341 kts 327°
2026-05-04 19:12 52.12298 -0.72942 12720 ft 345 kts 327°
2026-05-04 19:12 52.16443 -0.77018 14145 ft 352 kts 327°
2026-05-04 19:12 52.18553 -0.79101 14760 ft 356 kts 327°
2026-05-04 19:13 52.20678 -0.81202 15348 ft 360 kts 327°
2026-05-04 19:13 52.22836 -0.83344 15947 ft 365 kts 327°
2026-05-04 19:13 52.24876 -0.85372 16503 ft 368 kts 327°
2026-05-04 19:13 52.27078 -0.87558 17107 ft 373 kts 327°
2026-05-04 19:14 52.29307 -0.89770 17728 ft 377 kts 327°
2026-05-04 19:14 52.31556 -0.92001 18327 ft 381 kts 327°
2026-05-04 19:14 52.33829 -0.94262 18891 ft 384 kts 327°
2026-05-04 19:14 52.36094 -0.96520 19466 ft 388 kts 326°
2026-05-04 19:15 52.38402 -0.98827 20068 ft 391 kts 326°
2026-05-04 19:15 52.40728 -1.01157 20658 ft 393 kts 326°
2026-05-04 19:15 52.43072 -1.03504 21242 ft 396 kts 325°
2026-05-04 19:15 52.45431 -1.05871 21803 ft 399 kts 325°
2026-05-04 19:16 52.47806 -1.08259 22363 ft 402 kts 325°
2026-05-04 19:16 52.50197 -1.10665 22902 ft 405 kts 324°
2026-05-04 19:16 52.52609 -1.13092 23445 ft 408 kts 324°
2026-05-04 19:16 52.55037 -1.15532 23912 ft 410 kts 324°
2026-05-04 19:17 52.57479 -1.17988 24348 ft 413 kts 324°
2026-05-04 19:17 52.59935 -1.20462 24772 ft 415 kts 325°
2026-05-04 19:17 52.62402 -1.22956 25195 ft 418 kts 325°
2026-05-04 19:17 52.64887 -1.25473 25596 ft 420 kts 325°
2026-05-04 19:18 52.67387 -1.28008 25991 ft 423 kts 326°
2026-05-04 19:18 52.69899 -1.30558 26390 ft 426 kts 326°
2026-05-04 19:18 52.72432 -1.33131 26776 ft 428 kts 326°
2026-05-04 19:18 52.74971 -1.35719 27190 ft 431 kts 327°
2026-05-04 19:19 52.77528 -1.38329 27568 ft 434 kts 327°
2026-05-04 19:19 52.80107 -1.40957 27947 ft 436 kts 327°
2026-05-04 19:19 52.82691 -1.43598 28325 ft 439 kts 328°
2026-05-04 19:19 52.85297 -1.46272 28676 ft 442 kts 328°
2026-05-04 19:20 52.87911 -1.48956 29041 ft 444 kts 328°
2026-05-04 19:20 52.90542 -1.51657 29401 ft 446 kts 329°
2026-05-04 19:20 52.93186 -1.54375 29763 ft 449 kts 329°
2026-05-04 19:20 52.95848 -1.57116 30099 ft 451 kts 329°
2026-05-04 19:21 52.98523 -1.59873 30389 ft 454 kts 329°
2026-05-04 19:21 53.01202 -1.62639 30745 ft 454 kts 329°
2026-05-04 19:21 53.03883 -1.65415 31178 ft 453 kts 330°
2026-05-04 19:21 53.06555 -1.68186 31613 ft 452 kts 330°
2026-05-04 19:22 53.09221 -1.70954 32053 ft 451 kts 330°
2026-05-04 19:22 53.11878 -1.73720 32494 ft 449 kts 330°
2026-05-04 19:22 53.14487 -1.76438 32937 ft 448 kts 330°
2026-05-04 19:22 53.17125 -1.79192 33393 ft 447 kts 330°
2026-05-04 19:23 53.19752 -1.81939 33853 ft 445 kts 330°
2026-05-04 19:23 53.22378 -1.84688 34031 ft 445 kts 330°
2026-05-04 19:23 53.25000 -1.87407 34056 ft 443 kts 331°
2026-05-04 19:24 53.30323 -1.92544 34054 ft 441 kts 333°
2026-05-04 19:24 53.35685 -1.97488 34053 ft 440 kts 333°
2026-05-04 19:25 53.41038 -2.02484 34055 ft 440 kts 333°
2026-05-04 19:25 53.46344 -2.07546 34058 ft 439 kts 332°
2026-05-04 19:26 53.51653 -2.12659 34058 ft 439 kts 332°
2026-05-04 19:26 53.56838 -2.18089 34059 ft 441 kts 322°
2026-05-04 19:27 53.60896 -2.25822 34064 ft 445 kts 303°
2026-05-04 19:27 53.63423 -2.35347 34066 ft 447 kts 292°
2026-05-04 19:28 53.65661 -2.45127 34068 ft 447 kts 292°
2026-05-04 19:28 53.67895 -2.54903 34076 ft 446 kts 292°
2026-05-04 19:29 53.70113 -2.64685 34080 ft 446 kts 292°
2026-05-04 19:29 53.72316 -2.74459 34088 ft 446 kts 292°
2026-05-04 19:30 53.74515 -2.84250 34094 ft 445 kts 292°
2026-05-04 19:30 53.76708 -2.94030 34090 ft 445 kts 292°
2026-05-04 19:31 53.78867 -3.03762 34096 ft 444 kts 292°
2026-05-04 19:31 53.81029 -3.13539 34098 ft 444 kts 292°
2026-05-04 19:32 53.83190 -3.23330 34095 ft 443 kts 292°
2026-05-04 19:32 53.85334 -3.33121 34090 ft 443 kts 292°
2026-05-04 19:33 53.87470 -3.42891 34094 ft 442 kts 292°
2026-05-04 19:33 53.89599 -3.52676 34090 ft 442 kts 292°
2026-05-04 19:34 53.91716 -3.62446 34094 ft 441 kts 291°
2026-05-04 19:34 53.93818 -3.72219 34090 ft 440 kts 291°
2026-05-04 19:35 53.95951 -3.81955 34096 ft 439 kts 296°
2026-05-04 19:35 53.98899 -3.90997 33970 ft 437 kts 301°
2026-05-04 19:35 54.00422 -3.95478 33691 ft 437 kts 301°
2026-05-04 19:36 54.01932 -3.99953 33420 ft 437 kts 301°
2026-05-04 19:36 54.03438 -4.04439 33143 ft 437 kts 301°
2026-05-04 19:36 54.04942 -4.08933 32880 ft 437 kts 301°
2026-05-04 19:36 54.06485 -4.13392 32608 ft 437 kts 305°
2026-05-04 19:37 54.08231 -4.17623 32345 ft 437 kts 306°
2026-05-04 19:37 54.09990 -4.21852 32085 ft 437 kts 306°
2026-05-04 19:37 54.11739 -4.26069 31502 ft 436 kts 306°
2026-05-04 19:37 54.13479 -4.30275 30959 ft 431 kts 306°
2026-05-04 19:38 54.15200 -4.34445 30395 ft 428 kts 306°
2026-05-04 19:38 54.16903 -4.38586 29778 ft 425 kts 306°
2026-05-04 19:38 54.18586 -4.42685 29222 ft 419 kts 306°
2026-05-04 19:38 54.20228 -4.46685 28667 ft 415 kts 305°
2026-05-04 19:39 54.21876 -4.50707 28123 ft 411 kts 305°
2026-05-04 19:39 54.23507 -4.54686 27575 ft 407 kts 305°
2026-05-04 19:39 54.25126 -4.58636 27032 ft 404 kts 305°
2026-05-04 19:39 54.26728 -4.62554 26497 ft 401 kts 305°
2026-05-04 19:40 54.28320 -4.66453 25972 ft 398 kts 305°
2026-05-04 19:40 54.29899 -4.70333 25459 ft 396 kts 305°
2026-05-04 19:40 54.31468 -4.74194 24960 ft 394 kts 305°
2026-05-04 19:40 54.33022 -4.78029 24463 ft 392 kts 304°
2026-05-04 19:41 54.34573 -4.81863 23986 ft 390 kts 304°
2026-05-04 19:41 54.36113 -4.85679 23483 ft 389 kts 304°
2026-05-04 19:41 54.37644 -4.89492 22990 ft 386 kts 304°
2026-05-04 19:41 54.39160 -4.93273 22527 ft 383 kts 304°
2026-05-04 19:42 54.40666 -4.97030 22048 ft 381 kts 304°
2026-05-04 19:42 54.42163 -5.00763 21575 ft 378 kts 304°
2026-05-04 19:42 54.43652 -5.04471 21084 ft 376 kts 304°
2026-05-04 19:42 54.45136 -5.08154 20593 ft 374 kts 304°
2026-05-04 19:43 54.46120 -5.10589 20256 ft 373 kts 304°
2026-05-04 19:43 54.47598 -5.14239 19747 ft 372 kts 304°
2026-05-04 19:43 54.49075 -5.17882 19225 ft 370 kts 304°
2026-05-04 19:43 54.50617 -5.21414 18684 ft 369 kts 311°
2026-05-04 19:44 54.52508 -5.24389 18150 ft 368 kts 321°
2026-05-04 19:44 54.54522 -5.27096 17582 ft 366 kts 321°
2026-05-04 19:44 54.56511 -5.29783 17060 ft 362 kts 321°
2026-05-04 19:44 54.58481 -5.32457 16534 ft 359 kts 321°
2026-05-04 19:45 54.60430 -5.35115 16010 ft 356 kts 321°
2026-05-04 19:45 54.62361 -5.37756 15490 ft 353 kts 320°
2026-05-04 19:45 54.64277 -5.40384 14976 ft 351 kts 320°
2026-05-04 19:45 54.66178 -5.42991 14456 ft 348 kts 320°
2026-05-04 19:46 54.68075 -5.45590 13944 ft 346 kts 320°
2026-05-04 19:46 54.69956 -5.48169 13382 ft 344 kts 320°
2026-05-04 19:46 54.71733 -5.50888 12856 ft 339 kts 308°
2026-05-04 19:46 54.72863 -5.54404 12336 ft 334 kts 287°
2026-05-04 19:47 54.73114 -5.58353 11826 ft 331 kts 264°
2026-05-04 19:47 54.72465 -5.62090 11355 ft 330 kts 242°
2026-05-04 19:47 54.70977 -5.65126 10996 ft 327 kts 219°
2026-05-04 19:47 54.68985 -5.66828 10655 ft 326 kts 196°
2026-05-04 19:48 54.66738 -5.67143 10312 ft 324 kts 180°
2026-05-04 19:48 54.64475 -5.66975 9969 ft 320 kts 179°
2026-05-04 19:48 54.62288 -5.66774 9601 ft 309 kts 179°
2026-05-04 19:48 54.60227 -5.66575 9343 ft 291 kts 179°
2026-05-04 19:49 54.58265 -5.66378 9106 ft 275 kts 179°
2026-05-04 19:49 54.56386 -5.66182 8866 ft 260 kts 179°
2026-05-04 19:49 54.54629 -5.65996 8635 ft 255 kts 179°
2026-05-04 19:49 54.52855 -5.65808 8403 ft 255 kts 179°
2026-05-04 19:50 54.51080 -5.65623 8093 ft 256 kts 179°
2026-05-04 19:50 54.49303 -5.65438 7787 ft 255 kts 179°
2026-05-04 19:50 54.47538 -5.65257 7495 ft 254 kts 179°
2026-05-04 19:50 54.45794 -5.65443 7184 ft 249 kts 200°
2026-05-04 19:51 54.44201 -5.66548 6892 ft 246 kts 208°
2026-05-04 19:51 54.42667 -5.67806 6590 ft 240 kts 208°
2026-05-04 19:51 54.41192 -5.69032 6291 ft 232 kts 209°
2026-05-04 19:51 54.39747 -5.70233 6046 ft 227 kts 209°
2026-05-04 19:52 54.38348 -5.71386 6020 ft 221 kts 209°
2026-05-04 19:52 54.36965 -5.72525 6020 ft 221 kts 209°
2026-05-04 19:52 54.35578 -5.73667 6019 ft 221 kts 209°
2026-05-04 19:52 54.34190 -5.74808 6018 ft 221 kts 209°
2026-05-04 19:53 54.32887 -5.76143 6008 ft 216 kts 229°
2026-05-04 19:53 54.32203 -5.78330 6018 ft 209 kts 264°
2026-05-04 19:53 54.32400 -5.80728 6029 ft 206 kts 298°
2026-05-04 19:53 54.33196 -5.82767 6027 ft 207 kts 307°
2026-05-04 19:54 54.34091 -5.84689 6021 ft 202 kts 309°
2026-05-04 19:54 54.34944 -5.86481 6041 ft 188 kts 309°
2026-05-04 19:54 54.35765 -5.88200 5813 ft 185 kts 309°
2026-05-04 19:54 54.36577 -5.89902 5505 ft 183 kts 309°
2026-05-04 19:55 54.37371 -5.91575 5249 ft 179 kts 309°
2026-05-04 19:55 54.38149 -5.93218 4996 ft 176 kts 309°
2026-05-04 19:55 54.38911 -5.94834 4733 ft 173 kts 309°
2026-05-04 19:55 54.39658 -5.96426 4466 ft 170 kts 309°
2026-05-04 19:56 54.40397 -5.98007 4210 ft 169 kts 309°
2026-05-04 19:56 54.41124 -5.99568 3993 ft 166 kts 309°
2026-05-04 19:56 54.41832 -6.01093 3826 ft 161 kts 309°
2026-05-04 19:56 54.42523 -6.02587 3697 ft 159 kts 309°
2026-05-04 19:57 54.43210 -6.04075 3591 ft 159 kts 309°
2026-05-04 19:57 54.43896 -6.05565 3491 ft 159 kts 309°
2026-05-04 19:57 54.44581 -6.07054 3399 ft 159 kts 309°
2026-05-04 19:57 54.45265 -6.08543 3288 ft 159 kts 309°
2026-05-04 19:58 54.46043 -6.09865 3165 ft 158 kts 335°
2026-05-04 19:58 54.47114 -6.09947 3076 ft 161 kts 21°
2026-05-04 19:58 54.47922 -6.08619 3027 ft 166 kts 59°
2026-05-04 19:58 54.48385 -6.06766 3026 ft 170 kts 67°
2026-05-04 19:59 54.48760 -6.04908 3001 ft 158 kts 68°
2026-05-04 19:59 54.49094 -6.03180 3007 ft 149 kts 67°
2026-05-04 19:59 54.49650 -6.01758 2834 ft 141 kts 36°
2026-05-04 19:59 54.50442 -6.00795 2653 ft 139 kts 31°
2026-05-04 20:00 54.51232 -5.99858 2469 ft 137 kts 31°
2026-05-04 20:00 54.52018 -5.98925 2265 ft 137 kts 31°
2026-05-04 20:00 54.52800 -5.97996 2071 ft 137 kts 31°
2026-05-04 20:00 54.53581 -5.97067 1893 ft 136 kts 31°
2026-05-04 20:01 54.54361 -5.96140 1706 ft 136 kts 31°
2026-05-04 20:01 54.55140 -5.95212 1515 ft 136 kts 31°
2026-05-04 20:01 54.55915 -5.94289 1332 ft 135 kts 31°
2026-05-04 20:01 54.56686 -5.93371 1132 ft 135 kts 32°
2026-05-04 20:02 54.57455 -5.92453 949 ft 134 kts 32°
2026-05-04 20:02 54.58222 -5.91539 767 ft 134 kts 33°
2026-05-04 20:02 54.58940 -5.90682 596 ft 133 kts 33°
2026-05-04 20:02 54.59701 -5.89773 416 ft 133 kts 33°
2026-05-04 20:03 54.60460 -5.88866 247 ft 133 kts 33°
2026-05-04 20:03 54.61215 -5.87965 74 ft 134 kts 33°
2026-05-04 20:03 54.62056 -5.86936 538 ft 153 kts 33°
2026-05-04 20:03 54.62927 -5.85876 1450 ft 153 kts 32°
2026-05-04 20:04 54.63855 -5.84760 1768 ft 173 kts 32°
2026-05-04 20:04 54.64913 -5.83496 2084 ft 196 kts 32°
2026-05-04 20:04 54.66059 -5.82115 2682 ft 204 kts 34°
2026-05-04 20:04 54.66963 -5.80186 3134 ft 214 kts 66°
2026-05-04 20:05 54.67073 -5.77616 3593 ft 221 kts 103°
2026-05-04 20:05 54.66387 -5.75249 3959 ft 235 kts 125°
2026-05-04 20:05 54.65419 -5.73026 4010 ft 243 kts 128°
2026-05-04 20:05 54.64366 -5.70733 4012 ft 244 kts 129°
2026-05-04 20:06 54.63304 -5.68436 4012 ft 244 kts 129°
2026-05-04 20:06 54.62244 -5.66149 4014 ft 244 kts 129°
2026-05-04 20:06 54.61179 -5.63864 4012 ft 244 kts 130°
2026-05-04 20:06 54.59850 -5.62099 4012 ft 242 kts 161°
2026-05-04 20:07 54.58218 -5.61776 4010 ft 236 kts 194°
2026-05-04 20:07 54.56676 -5.62688 4012 ft 234 kts 207°
2026-05-04 20:07 54.55196 -5.63860 4015 ft 234 kts 208°
2026-05-04 20:07 54.53730 -5.65067 4012 ft 234 kts 209°
2026-05-04 20:08 54.52260 -5.66281 4011 ft 235 kts 209°
2026-05-04 20:08 54.50790 -5.67503 4014 ft 235 kts 209°
2026-05-04 20:08 54.49320 -5.68729 4012 ft 235 kts 209°
2026-05-04 20:08 54.47853 -5.69956 4014 ft 235 kts 209°
2026-05-04 20:09 54.46385 -5.71185 4013 ft 234 kts 209°
2026-05-04 20:09 54.44921 -5.72410 4017 ft 234 kts 209°
2026-05-04 20:09 54.43464 -5.73628 4015 ft 235 kts 209°
2026-05-04 20:09 54.41997 -5.74857 4014 ft 235 kts 209°
2026-05-04 20:10 54.40530 -5.76087 4019 ft 235 kts 209°
2026-05-04 20:10 54.39063 -5.77320 4014 ft 235 kts 209°
2026-05-04 20:10 54.37599 -5.78551 4019 ft 234 kts 209°
2026-05-04 20:10 54.36152 -5.79768 4017 ft 234 kts 209°
2026-05-04 20:11 54.34691 -5.80997 4019 ft 234 kts 209°
2026-05-04 20:11 54.33226 -5.82229 4020 ft 234 kts 209°
2026-05-04 20:11 54.31862 -5.83701 4014 ft 230 kts 230°
2026-05-04 20:11 54.31132 -5.86052 4025 ft 224 kts 261°
2026-05-04 20:12 54.30936 -5.88693 4024 ft 223 kts 268°
2026-05-04 20:12 54.30832 -5.91345 4023 ft 223 kts 269°
2026-05-04 20:12 54.30740 -5.93997 4024 ft 223 kts 269°
2026-05-04 20:12 54.30652 -5.96651 4023 ft 224 kts 269°
2026-05-04 20:13 54.30772 -5.99276 4016 ft 220 kts 292°
2026-05-04 20:13 54.31661 -6.01356 4022 ft 219 kts 322°
2026-05-04 20:13 54.32929 -6.02831 4022 ft 221 kts 328°
2026-05-04 20:13 54.34243 -6.04197 4022 ft 219 kts 328°
2026-05-04 20:14 54.35512 -6.05495 4015 ft 205 kts 329°
2026-05-04 20:14 54.36691 -6.06693 4046 ft 188 kts 329°
2026-05-04 20:14 54.37793 -6.07807 3964 ft 182 kts 329°
2026-05-04 20:14 54.38875 -6.08901 3724 ft 179 kts 329°
2026-05-04 20:15 54.39946 -6.09992 3623 ft 177 kts 329°
2026-05-04 20:15 54.40973 -6.11038 3511 ft 167 kts 329°
2026-05-04 20:15 54.41959 -6.12014 3415 ft 161 kts 335°
2026-05-04 20:15 54.43049 -6.12110 3298 ft 162 kts 20°
2026-05-04 20:16 54.43869 -6.10795 3199 ft 167 kts 59°
2026-05-04 20:16 54.44333 -6.08948 3119 ft 169 kts 67°
2026-05-04 20:16 54.44723 -6.07047 3033 ft 169 kts 67°
2026-05-04 20:16 54.45421 -6.05543 3015 ft 162 kts 19°
2026-05-04 20:17 54.46519 -6.05200 3016 ft 161 kts
2026-05-04 20:17 54.47488 -6.04258 3028 ft 165 kts 40°
2026-05-04 20:17 54.48411 -6.03093 3004 ft 165 kts 29°
2026-05-04 20:17 54.49372 -6.02023 2861 ft 164 kts 31°
2026-05-04 20:18 54.50316 -6.00930 2663 ft 163 kts 31°
2026-05-04 20:18 54.51250 -5.99830 2454 ft 162 kts 31°
2026-05-04 20:18 54.52180 -5.98731 2225 ft 162 kts 32°
2026-05-04 20:18 54.53104 -5.97633 2009 ft 161 kts 31°
2026-05-04 20:19 54.54021 -5.96544 1792 ft 160 kts 31°
2026-05-04 20:19 54.54940 -5.95450 1571 ft 160 kts 32°
2026-05-04 20:19 54.55812 -5.94412 1364 ft 160 kts 32°
2026-05-04 20:19 54.56702 -5.93353 1146 ft 147 kts 32°
2026-05-04 20:20 54.57518 -5.92378 933 ft 138 kts 33°
2026-05-04 20:20 54.58298 -5.91448 738 ft 135 kts 33°
2026-05-04 20:20 54.59062 -5.90537 564 ft 133 kts 33°
2026-05-04 20:20 54.59823 -5.89628 385 ft 133 kts 33°
2026-05-04 20:21 54.60579 -5.88726 213 ft 132 kts 33°
2026-05-04 20:21 54.61329 -5.87827 27 ft 131 kts 33°
2026-05-04 20:21 54.62031 -5.86978 17 ft 8 kts
2026-05-04 20:22 54.62035 -5.87000 19 ft 3 kts 220°
2026-05-04 20:22 54.61903 -5.87142 19 ft 33 kts 214°
2026-05-04 20:22 54.61814 -5.87152 17 ft 3 kts 121°
2026-05-04 20:22 54.61790 -5.87067 22 ft 13 kts 118°
2026-05-04 20:23 54.61719 -5.86998 21 ft 13 kts 210°
2026-05-04 20:23 54.61694 -5.87030 21 ft 4 kts 214°
2026-05-04 20:23 54.61665 -5.87065 21 ft 2 kts 214°
2026-05-04 20:23 54.61653 -5.87078 21 ft 0 kts 214°
2026-05-04 20:24 54.61651 -5.87081 21 ft 2 kts 214°
2026-05-04 20:24 54.61602 -5.87139 23 ft 14 kts 214°
2026-05-04 20:24 54.61540 -5.87214 21 ft 4 kts 215°
2026-05-04 20:24 54.61530 -5.87223 21 ft 4 kts 208°
2026-05-04 20:25 54.61487 -5.87208 21 ft 6 kts 157°
2026-05-04 20:25 54.61466 -5.87191 23 ft 2 kts 154°
2026-05-04 20:25 54.61463 -5.87188 22 ft 0 kts 154°